This is the latest recevied weather packets stored in our database for station/object F4IKI-10. If no packets are shown the sender has not sent any weather packets the latest 1 day(s).
| Time | Temp. | Humidity | Pressure | Rain* | Wind** | Luminosity | Snow |
|---|---|---|---|---|---|---|---|
| 1777726707 | 20.56° C | 67% | 1019 hPa | - | - | - | - |
| 1777725807 | 20.56° C | 66% | 1019.1 hPa | - | - | - | - |
| 1777724907 | 20.56° C | 66% | 1019.2 hPa | - | - | - | - |
| 1777724006 | 20.56° C | 68% | 1019.2 hPa | - | - | - | - |
| 1777723106 | 20.56° C | 67% | 1019.4 hPa | - | - | - | - |
| 1777722206 | 20.56° C | 66% | 1019.4 hPa | - | - | - | - |
| 1777721306 | 20° C | 66% | 1019.4 hPa | - | - | - | - |
| 1777720406 | 20° C | 66% | 1019.6 hPa | - | - | - | - |
| 1777719506 | 20° C | 66% | 1019.6 hPa | - | - | - | - |
| 1777718606 | 20° C | 65% | 1019.8 hPa | - | - | - | - |
| 1777717705 | 19.44° C | 66% | 1019.7 hPa | - | - | - | - |
| 1777716805 | 19.44° C | 64% | 1019.9 hPa | - | - | - | - |
| 1777715905 | 19.44° C | 64% | 1020 hPa | - | - | - | - |
| 1777715005 | 18.89° C | 64% | 1020.1 hPa | - | - | - | - |
| 1777714105 | 19.44° C | 63% | 1020 hPa | - | - | - | - |
| 1777713205 | 18.89° C | 63% | 1020.1 hPa | - | - | - | - |
| 1777712305 | 18.89° C | 64% | 1020.2 hPa | - | - | - | - |
| 1777711405 | 18.89° C | 65% | 1020.3 hPa | - | - | - | - |
| 1777710505 | 19.44° C | 61% | 1020.2 hPa | - | - | - | - |
| 1777709605 | 20° C | 60% | 1020.1 hPa | - | - | - | - |
| 1777708704 | 20° C | 59% | 1019.9 hPa | - | - | - | - |
* Rain since midnight (hover to see other rain measurements)
** Current wind speed in m/s (hover to see current wind gust speed)